Location: New Town
(33.2710°N, 90.7534°W)
Time: 12:02:13
(UTC+00:00)

Explorer 11/Cluster Stage 4 - Pass Details

Date: 17 May 2021
Orbit: 467 x 1257 km, 28.8° (Epoch: 14 June)

Event Time Altitude Azimuth Distance (km) Brightness Sun altitude
Rises 01:10:12 0° 247° (WSW) 3,876 10.8 -3.3°
Reaches altitude 10° 01:12:53 10° 243° (WSW) 3,010 10.1 -3.8°
Maximum altitude 01:20:21 56° 168° (SSE) 1,439 7.7 -5.2°
Drops below altitude 10° 01:28:22 10° 93° (E) 3,225 9.2 -6.7°
Enters shadow 01:30:19 - 90° (E) 3,844 9.6 -7.1°
Sets 01:31:21 0° 89° (E) 4,170 - -7.2°
